Kalamazoo, MI

6:26 PM EDT on April 28, 2017 (GMT -0400)
Kalamazoo-Battle Creek International

Weather History for KAZO - September, 2011

Change the Weather History Date:

Sunday, September 4, 2011

  Actual Average Record
Temperature  
Mean Temperature 66 °F 67 °F  
Max Temperature 73 °F 77 °F 93 °F (1973)
Min Temperature 58 °F 57 °F 42 °F (1974)
Degree Days  
Heating Degree Days 0 1  
Month to date heating degree days 4  
Since 1 July heating degree days 20  
Cooling Degree Days 1 3  
Month to date cooling degree days 15  
Year to date cooling degree days 626  
Growing Degree Days 14 (Base 50)    
Moisture  
Dew Point 62 °F    
Average Humidity 79    
Maximum Humidity 90    
Minimum Humidity 51    
Precipitation  
Precipitation 0.01 in 0.14 in 1.52 in (2008)
Month to date precipitation 0.08 0.63  
Year to date precipitation 24.22  
Sea Level Pressure  
Sea Level Pressure 29.87 in    
Wind  
Wind Speed 9 mph (WNW)    
Max Wind Speed 21 mph    
Max Gust Speed 26 mph    
Visibility 9 miles    
Events Rain    
T = Trace of Precipitation, MM = Missing Value Source: NWS Daily Summary

Daily Weather History Graph

Daily Weather History Graph

Search for Another Location

Airport or City:

Trip Planner

Search our weather history database for the weather conditions in past years. The results will help you decide how hot, cold, wet, or windy it might be!

Date:

Astronomy

Sep. 04, 2011 Rise Set
Actual Time 7:10 AM EDT 8:11 PM EDT
Civil Twilight 6:41 AM EDT 8:39 PM EDT
Nautical Twilight 6:07 AM EDT 9:14 PM EDT
Astronomical Twilight 5:31 AM EDT 9:49 PM EDT
Moon 3:03 PM EDT (9/4) No Moon Set
Length of Visible Light 13h 58m
Length of Day
13h 01m
Waxing Crescent, 49% of the Moon is Illuminated
Sep 4
Waxing Crescent
Sep 4
First Quarter
Sep 12
Full
Sep 20
Last Quarter
Sep 27
New

Hourly Weather History & Observations

Time (EDT) Temp. Dew Point Humidity Pressure Visibility Wind Dir Wind Speed Gust Speed Precip Events Conditions
12:53 AM 70.0 °F 66.9 °F 90% 29.84 in 9.0 mi NNW 3.5 mph - 0.00 in Rain Light Rain
1:53 AM 70.0 °F 66.9 °F 90% 29.83 in 10.0 mi SSW 6.9 mph - 0.00 in   Partly Cloudy
2:53 AM 70.0 °F 66.9 °F 90% 29.80 in 9.0 mi SW 4.6 mph - 0.00 in   Clear
3:53 AM 69.8 °F 66.2 °F 88% 29.83 in 6.0 mi West 3.5 mph - N/A Rain Light Rain
4:37 AM 69.8 °F 66.2 °F 88% 29.84 in 6.0 mi WNW 6.9 mph - 0.00 in   Overcast
4:53 AM 70.0 °F 66.9 °F 90% 29.82 in 6.0 mi WNW 4.6 mph - 0.01 in   Overcast
5:00 AM 69.8 °F 66.2 °F 88% 29.84 in 5.0 mi West 3.5 mph - N/A   Overcast
5:22 AM 69.8 °F 66.2 °F 88% 29.84 in 5.0 mi Calm Calm - N/A   Overcast
5:29 AM 69.8 °F 66.2 °F 88% 29.84 in 5.0 mi Calm Calm - N/A   Overcast
5:53 AM 70.0 °F 66.9 °F 90% 29.83 in 7.0 mi SW 4.6 mph - N/A   Overcast
6:30 AM 69.8 °F 66.2 °F 88% 29.86 in 8.0 mi WSW 4.6 mph - N/A   Overcast
6:43 AM 69.8 °F 66.2 °F 88% 29.86 in 8.0 mi WSW 4.6 mph - N/A   Overcast
6:53 AM 70.0 °F 66.9 °F 90% 29.85 in 9.0 mi WSW 3.5 mph - N/A   Overcast
7:18 AM 69.8 °F 66.2 °F 88% 29.87 in 10.0 mi Calm Calm - N/A   Overcast
7:53 AM 70.0 °F 66.9 °F 90% 29.86 in 9.0 mi WSW 4.6 mph - N/A   Overcast
8:53 AM 71.1 °F 66.9 °F 87% 29.86 in 9.0 mi West 9.2 mph - N/A   Overcast
9:00 AM 71.6 °F 66.2 °F 83% 29.87 in 10.0 mi WNW 8.1 mph - N/A   Scattered Clouds
9:15 AM 71.6 °F 66.2 °F 83% 29.88 in 10.0 mi West 8.1 mph - N/A   Mostly Cloudy
9:53 AM 70.0 °F 64.9 °F 84% 29.86 in 10.0 mi WNW 8.1 mph - N/A   Mostly Cloudy
10:13 AM 69.8 °F 64.4 °F 83% 29.87 in 10.0 mi WNW 11.5 mph - N/A   Overcast
10:53 AM 72.0 °F 64.0 °F 76% 29.87 in 10.0 mi West 8.1 mph - N/A   Mostly Cloudy
11:39 AM 71.6 °F 62.6 °F 73% 29.88 in 10.0 mi West 10.4 mph - N/A   Overcast
11:53 AM 72.0 °F 62.1 °F 71% 29.87 in 10.0 mi West 11.5 mph - N/A   Mostly Cloudy
12:06 PM 71.6 °F 62.6 °F 73% 29.88 in 10.0 mi West 9.2 mph - N/A   Scattered Clouds
12:53 PM 71.6 °F 60.8 °F 69% 29.88 in 10.0 mi WNW 13.8 mph - N/A   Scattered Clouds
1:53 PM 72.0 °F 59.0 °F 64% 29.87 in 10.0 mi West 10.4 mph - N/A   Scattered Clouds
2:53 PM 72.0 °F 55.9 °F 57% 29.88 in 10.0 mi WNW 13.8 mph 21.9 mph N/A   Scattered Clouds
3:53 PM 70.0 °F 55.0 °F 59% 29.89 in 10.0 mi WNW 13.8 mph - N/A   Scattered Clouds
4:53 PM 72.0 °F 53.1 °F 51% 29.89 in 10.0 mi NW 18.4 mph 25.3 mph N/A   Partly Cloudy
5:53 PM 70.0 °F 53.1 °F 55% 29.90 in 10.0 mi WNW 13.8 mph 24.2 mph N/A   Mostly Cloudy
6:53 PM 66.0 °F 51.1 °F 59% 29.91 in 10.0 mi NW 11.5 mph 21.9 mph N/A   Mostly Cloudy
7:53 PM 64.0 °F 52.0 °F 65% 29.91 in 10.0 mi NW 10.4 mph - N/A   Clear
8:53 PM 62.1 °F 53.1 °F 72% 29.93 in 10.0 mi NW 6.9 mph - N/A   Clear
9:53 PM 61.0 °F 53.1 °F 75% 29.94 in 10.0 mi NW 9.2 mph - N/A   Clear
10:53 PM 57.9 °F 53.1 °F 84% 29.94 in 10.0 mi NNW 3.5 mph - N/A   Clear
11:53 PM 59.0 °F 53.1 °F 81% 29.96 in 10.0 mi NNW 13.8 mph - N/A   Partly Cloudy